SCP
0 0 0 0 0 0 0 0 0 0 0 0 0 0 0 0 0 0 0 0 0 0 0 0 0 0 0 0 0 0 0 0 0 0 0 0 0 0 0 0 0 0 0 0 0 0 0 0 0
0 0 0 0 0 0 0 0 0 0 0 0 0 0 0 0 0 0 0 0 0 0 0 0 0 0 0 0 0 0 0 0 0 0 0 0 0 0 0 0 0 0 0 0 0 0 0 0 0
0 0 0 0 0 0 0 0 0 0 0 0 0 0 0 0 0 0 0 0 0 0 0 0 0 0 0 0 0 0 0 0 0 0 0 0 0 0 0 0 0 0 0 0 0 0 0 0 0
0 0 0 0 0 0 0 0 0 0 0 0 0 0 0 0 0 0 0 0 0 0 0 0 0 0 0 0 0 0 0 0 0 0 0 0 0 0 0 0 0 0 0 0 0 0 0 0 0
0 0 0 0 0 0 0 0 0 0 0 0 0 0 0 0 0 0 0 0 0 0 0 0 0 0 0 0 0 0 0 0 0 0 0 0 0 0 0 0 0 0 0 0 0 0 0 0 0
0 0 0 0 0 0 0 0 0 0 0 0 0 0 0 0 0 0 0 0 0 0 0 0 0 0 0 0 0 0 0 0 0 0 0 0 0 0 0 0 0 0 0 0 0 0 0 0 0
0 0 0 0 0 0 0 0 0 0 0 0 0 0 0 0 0 0 0 0 0 0 0 0 0 0 0 0 0 0 0 0 0 0 0 0 0 0 0 0 0 0 0 0 0 0 0 0 0
0 0 0 0 0 0 0 0 0 0 0 0 0 0 0 0 0 0 0 0 0 0 0 0 0 0 0 0 0 0 0 0 0 0 0 0 0 0 0 0 0 0 0 0 0 0 0 0 0
0 0 0 0 0 0 0 0 0 0 0 0 0 0 0 0 0 0 0 0 0 0 0 0 0 0 0 0 0 0 0 0 0 0 0 0 0 0 0 0 0 0 0 0 0 0 0 0 0
0 0 0 0 0 0 0 0 0 0 0 0 0 0 0 0 0 0 0 0 0 0 0 0 0 0 0 0 0 0 0 0 0 0 0 0 0 0 0 0 0 0 0 0 0 0 0 0 0
0 0 0 0 0 0 0 0 0 0 0 0 0 0 0 0 0 0 0 0 0 0 0 0 0 0 0 0 0 0 0 0 0 0 0 0 0 0 0 0 0 0 0 0 0 0 0 0 0
0 0 0 0 0 0 0 0 0 0 0 0 0 0 0 0 0 0 0 0 0 0 0 0 0 0 0 0 0 0 0 0 0 0 0 0 0 0 0 0 0 0 0 0 0 0 0 0 0
0 0 0 0 0 0 0 0 0 0 0 0 0 0 0 0 0 0 0 0 0 0 0 0 0 0 0 0 0 0 0 0 0 0 0 0 0 0 0 0 0 0 0 0 0 0 0 0 0
0 0 0 0 0 0 0 0 0 0 0 0 0 0 0 0 0 0 0 0 0 0 0 0 0 0 0 0 0 0 0 0 0 0 0 0 0 0 0 0 0 0 0 0 0 0 0 0 0
0 0 0 0 0 0 0 0 0 0 0 0 0 0 0 0 0 0 0 0 0 0 0 0 0 0 0 0 0 0 0 0 0 0 0 0 0 0 0 0 0 0 0 0 0 0 0 0 0
0 0 0 0 0 0 0 0 0 0 0 0 0 0 0 0 0 0 0 0 0 0 0 0 0 0 0 0 0 0 0 0 0 0 0 0 0 0 0 0 0 0 0 0 0 0 0 0 0
0 0 0 0 0 0 0 0 0 0 0 0 0 0 0 0 0 0 0 0 0 0 0 0 0 0 0 0 0 0 0 0 0 0 0 0 0 0 0 0 0 0 0 0 0 0 0 0 0
0 0 0 0 0 0 0 0 0 0 0 0 0 0 0 0 0 0 0 0 0 0 0 0 0 0 0 0 0 0 0 0 0 0 0 0 0 0 0 0 0 0 0 0 0 0 0 0 0
0 0 0 0 0 0 0 0 0 0 0 0 0 0 0 0 0 0 0 0 0 0 0 0 0 0 0 0 0 0 0 0 0 0 0 0 0 0 0 0 0 0 0 0 0 0 0 0 0
0 0 0 0 0 0 0 0 0 0 0 0 0 0 0 0 0 0 0 0 0 0 0 0 0 0 0 0 0 0 0 0 0 0 0 0 0 0 0 0 0 0 0 0 0 0 0 0 0
0 0 0 0 0 0 0 0 0 0 0 0 0 0 0 0 0 0 0 0 0 0 0 0 0 0 0 0 0 0 0 0 0 0 0 0 0 0 0 0 0 0 0 0 0 0 0 0 0
0 0 0 0 0 0 0 0 0 0 0 0 0 0 0 0 0 0 0 0 0 0 0 0 0 0 0 0 0 0 0 0 0 0 0 0 0 0 0 0 0 0 0 0 0 0 0 0 0
0 0 0 0 0 0 0 0 0 0 0 0 0 0 0 0 0 0 0 0 0 0 0 0 0 0 0 0 0 0 0 0 0 0 0 0 0 0 0 0 0 0 0 0 0 0 0 0 0
0 0 0 0 0 0 0 0 0 0 0 0 0 0 0 0 0 0 0 0 0 0 0 0 0 0 0 0 0 0 0 0 0 0 0 0 0 0 0 0 0 0 0 0 0 0 0 0 0
0 0 0 0 0 0 0 0 0 0 0 0 0 0 0 0 0 0 0 0 0 0 0 0 0 0 0 0 0 0 0 0 0 0 0 0 0 0 0 0 0 0 0 0 0 0 0 0 0
0 0 0 0 0 0 0 0 0 -0 0 0 0 0 0 0 0 0 0 0 0 0 0 0 0 0 0 0 0 0 0 0 0 0 0 0 0 0 0 0 0 0 0 0 0 0 0 0 0
0 0 0 0 0 0 0 0 0 0 0 0 0 0 0 0 0 0 0 0 0 0 0 0 0 0 0 0 0 0 0 0 0 0 0 0 0 0 0 0 0 0 0 0 0 0 0 0 0
0 0 0 0 0 0 0 0 0 0 0 0 0 0 0 0 0 0 0 0 0 0 0 0 0 0 0 0 0 0 0 0 0 0 0 0 0 0 0 0 0 0 0 0 0 0 0 0 0
0 0 0 0 0 0 0 0 0 0 0 0 0 0 0 0 0 0 0 0 0 0 0 0 0 0 0 0 0 0 0 0 0 0 0 0 0 0 0 0 0 0 0 0 0 0 0 0 0
0 0 0 0 0 0 0 0 0 0 0 0 0 0 0 0 0 0 0 0 0 0 0 0 0 0 0 0 0 0 0 0 0 0 0 0 0 0 0 0 0 0 0 0 0 0 0 0 0
Wind_Speed
8 10 8 3 3 7 13 12 12 9 5 2 2 3 4 3 1 5 7 9 16 19 20 20 22 21 19 18 18 17 16 16 16 15 16 16 15 15 15 15 15 15 16 16 16 16 16 16 15
9 10 5 4 6 10 12 15 16 10 3 1 2 3 4 1 6 9 8 12 18 19 18 18 21 21 20 19 18 17 16 16 16 15 16 15 15 15 15 15 15 15 15 15 15 16 15 15 14
11 10 5 5 9 13 11 8 7 5 1 2 1 3 4 1 6 7 10 16 17 18 17 18 21 21 20 19 19 18 17 16 16 16 16 15 15 15 15 15 15 15 15 15 14 15 15 14 14
6 5 5 9 17 16 15 12 2 1 2 3 4 3 2 1 4 10 14 16 17 17 16 18 21 21 20 20 19 18 17 16 16 16 16 16 15 15 15 15 15 14 14 14 14 14 14 13 13
5 5 10 14 20 18 15 13 5 4 4 5 7 5 1 3 12 15 14 15 16 17 17 18 21 22 21 20 19 18 17 17 16 16 15 16 15 15 15 14 14 14 13 13 13 13 13 12 12
5 6 11 16 19 18 17 14 10 7 6 7 8 7 3 6 10 12 12 13 15 16 17 17 21 21 20 20 19 18 17 17 16 16 15 16 15 15 14 14 13 13 13 13 13 13 12 11 11
9 9 15 18 16 16 15 12 11 9 8 8 7 6 5 7 10 11 11 12 14 16 16 15 14 16 18 18 18 18 17 17 16 15 15 15 15 15 14 14 13 13 13 12 12 12 11 11 9
9 8 16 19 19 17 13 10 8 8 8 7 7 6 6 11 12 11 11 11 14 15 16 15 14 13 12 12 15 16 15 16 15 15 14 13 13 14 14 12 12 12 12 11 11 11 10 10 8
10 14 19 19 16 13 12 11 9 6 5 6 4 2 7 17 14 12 10 10 12 14 14 15 14 13 12 12 14 13 14 14 14 13 14 11 7 8 8 10 12 12 11 11 10 10 9 8 6
11 17 25 18 15 13 11 9 7 6 7 7 3 5 13 14 14 14 14 15 15 15 15 14 14 14 13 12 11 8 8 9 8 8 8 6 6 6 8 12 11 11 10 10 10 9 8 5 3
14 22 19 20 19 16 14 11 8 8 8 8 7 11 13 13 12 13 14 14 14 14 14 14 14 14 12 10 9 6 6 6 7 9 8 6 6 6 6 4 5 6 7 4 6 5 3 3 2
20 22 21 20 17 15 14 12 12 11 9 7 6 11 16 14 14 14 14 14 13 14 14 14 14 13 12 11 9 7 6 6 6 8 9 6 5 5 6 4 4 4 3 4 3 3 3 3 3
25 24 22 20 18 16 15 15 13 13 10 9 6 8 15 15 14 13 12 13 13 14 14 14 14 14 12 11 8 8 8 7 7 7 7 7 6 6 6 5 4 4 4 4 3 2 3 3 3
18 20 21 20 19 17 17 16 16 15 10 10 9 8 12 13 14 12 12 14 15 16 15 14 15 15 13 10 9 8 8 7 8 7 7 8 6 6 5 5 5 4 4 4 3 3 3 2 2
18 20 21 20 20 19 15 20 22 15 12 14 12 10 11 12 13 13 14 14 16 16 16 14 14 15 14 12 10 8 8 8 7 7 8 8 7 7 6 5 5 4 4 4 3 3 3 3 2
13 17 20 21 20 18 17 22 17 14 16 16 14 13 12 12 13 13 14 13 14 15 16 16 14 15 14 12 10 7 8 8 7 7 7 8 8 8 6 5 5 5 4 4 3 3 3 3 2
12 16 20 19 20 18 20 21 14 14 17 17 15 14 13 13 14 14 14 14 15 17 17 17 15 15 14 12 9 8 7 7 7 7 6 8 8 8 6 5 5 6 4 4 4 3 3 3 2
14 15 18 20 15 19 22 22 14 13 16 17 16 15 14 14 15 14 14 15 15 16 17 17 16 14 13 11 9 7 7 7 7 7 7 9 8 9 7 5 6 6 5 4 4 4 3 3 3
18 18 19 19 15 17 21 22 19 16 15 14 15 15 15 14 13 13 14 14 15 15 17 18 17 16 13 12 11 11 10 8 7 7 9 10 9 9 8 6 6 6 6 6 6 5 5 3 3
21 22 21 17 16 15 16 20 17 17 16 14 13 13 14 14 14 14 14 14 15 17 18 19 19 18 16 13 11 9 8 7 7 6 8 10 10 10 8 8 7 7 6 6 6 6 4 3 3
22 21 20 17 14 14 13 16 18 15 16 15 15 13 12 14 15 15 15 15 15 16 18 18 20 19 17 14 10 9 7 7 7 9 9 10 10 10 9 9 8 7 7 6 7 7 7 4 3
19 18 18 18 15 10 11 10 14 15 16 18 17 15 14 13 13 13 14 15 16 16 17 17 18 19 18 16 15 16 14 12 11 10 8 9 11 11 10 10 9 8 7 7 7 7 5 6 4
15 13 16 15 13 12 11 10 9 13 18 19 18 17 16 14 13 13 14 15 16 16 16 16 17 18 18 18 17 17 12 10 8 8 11 11 11 11 11 11 10 9 7 8 8 7 7 5 5
12 10 11 10 8 14 16 14 9 11 17 18 19 18 16 15 13 12 12 13 14 15 15 16 17 17 18 19 18 18 16 13 13 12 13 12 9 9 12 11 11 10 8 8 8 8 9 6 6
10 7 6 7 9 10 11 13 11 10 13 15 15 17 17 15 14 12 11 12 13 16 16 16 18 17 18 19 19 19 17 16 16 14 14 12 10 9 14 12 11 10 9 9 8 8 9 8 7
11 11 8 6 6 6 10 13 10 13 11 9 10 11 12 14 14 14 13 12 13 15 17 18 18 17 18 19 19 18 17 13 11 13 11 13 11 11 12 13 11 11 10 9 8 7 7 7 7
7 10 8 6 7 6 6 8 11 10 11 11 10 10 12 13 13 13 12 12 13 14 16 18 19 16 17 18 18 16 17 14 12 12 11 10 9 10 13 13 12 11 11 10 9 7 8 7 7
7 5 5 6 6 7 7 10 8 10 12 12 11 10 9 9 10 11 10 11 12 13 13 14 16 16 15 16 16 14 15 15 13 11 12 12 12 11 13 13 13 12 11 11 9 7 7 8 7
6 7 6 5 6 5 5 6 6 7 9 10 11 11 9 8 9 9 9 9 10 11 13 13 13 12 13 15 14 13 13 13 12 11 12 12 11 12 13 13 13 12 12 11 10 9 9 9 8
3 4 5 5 5 6 5 6 3 3 3 5 7 7 7 8 7 8 8 8 10 11 12 13 13 12 12 13 13 13 12 12 12 11 12 12 12 12 12 13 12 12 12 11 11 11 10 10 9
Wind_Direction
259 247 236 233 236 235 241 243 254 250 246 271 307 302 293 279 296 130 164 156 129 140 147 154 152 149 147 143 139 136 133 130 126 122 117 115 112 109 107 104 101 98 95 92 90 87 84 82 81
266 248 237 232 232 238 242 235 244 249 226 77 359 311 293 1 81 114 147 135 135 140 146 153 151 149 147 145 141 139 136 133 129 126 122 119 116 113 109 106 103 99 96 94 92 91 88 85 83
264 255 232 227 229 235 250 247 231 238 123 114 159 259 260 152 123 132 136 134 136 139 147 149 151 149 148 146 143 140 137 135 132 128 126 122 119 115 111 108 105 102 100 98 96 95 92 88 85
248 233 238 238 240 238 249 265 281 258 162 174 197 218 193 4 94 121 132 138 138 140 144 148 152 151 149 146 145 142 140 137 134 130 128 124 120 116 113 110 108 107 105 103 100 97 94 90 87
244 237 229 238 244 251 258 265 249 224 203 195 205 218 162 84 102 122 138 141 141 142 141 150 153 152 150 148 147 145 143 141 137 134 131 127 123 120 117 115 113 112 110 108 104 101 97 92 88
222 226 231 237 243 245 249 255 261 244 229 219 209 212 187 132 124 138 144 144 142 139 141 151 155 152 151 150 150 148 145 142 141 138 134 130 127 125 123 121 118 115 112 110 107 104 100 95 90
228 235 242 247 250 247 244 237 236 232 227 228 220 208 166 158 140 143 145 145 140 138 143 151 154 152 151 151 151 149 148 146 145 141 136 133 133 132 128 125 122 120 117 114 110 108 103 98 93
230 248 248 245 249 254 261 259 242 235 236 235 228 214 179 152 139 143 146 145 140 142 147 154 155 153 151 150 150 149 148 148 146 139 133 133 135 134 132 129 127 125 122 118 114 110 107 104 102
236 237 240 237 243 251 256 257 253 241 242 254 256 277 127 132 140 146 149 146 146 149 153 158 158 156 154 153 152 148 147 147 142 135 134 135 135 131 133 129 131 130 127 124 122 120 120 119 123
220 233 236 241 251 260 261 257 254 241 226 235 230 107 121 138 151 159 162 162 160 160 160 161 161 158 157 156 150 151 149 146 146 142 145 152 146 140 133 131 136 136 134 131 133 138 142 145 158
224 234 242 245 253 263 269 268 264 250 238 221 198 155 146 155 165 171 173 169 165 163 162 163 161 160 157 151 155 156 151 154 158 154 161 159 139 130 124 134 134 135 140 141 146 157 187 172 146
239 241 242 247 254 260 264 265 259 251 249 242 215 164 158 169 179 182 179 172 166 166 167 164 161 160 157 154 159 156 153 161 162 160 166 157 142 139 144 149 156 157 160 154 168 186 178 146 144
239 246 248 248 250 253 259 258 256 249 254 266 250 172 170 178 187 190 183 173 167 170 170 168 163 162 159 157 161 161 158 164 161 160 170 154 144 150 152 160 158 164 156 157 177 174 150 140 125
247 249 250 252 253 254 253 254 252 245 242 250 244 198 186 188 192 190 185 177 174 173 173 169 167 164 161 161 163 164 162 163 161 160 168 155 151 157 159 159 157 159 149 159 171 166 140 129 117
253 258 254 247 245 243 252 250 241 241 238 239 236 220 203 199 198 197 190 182 177 174 172 172 170 166 165 165 166 164 162 161 159 160 167 161 158 160 163 155 155 154 154 158 161 147 124 120 119
249 249 248 241 239 236 232 245 236 227 232 234 230 225 214 207 203 200 193 184 176 172 173 173 173 171 168 168 167 161 162 160 159 160 165 165 164 162 162 153 156 156 152 151 148 136 127 127 130
229 234 239 242 231 230 228 244 238 226 227 229 226 224 216 209 207 202 195 186 178 174 173 173 173 174 170 166 164 160 160 161 161 162 165 169 167 163 158 155 157 154 149 151 153 142 139 137 128
223 230 237 239 230 228 232 240 239 234 228 227 224 221 220 212 207 199 195 187 180 174 173 173 172 173 168 162 163 160 163 167 166 168 169 170 170 167 160 156 162 156 152 157 156 151 142 140 142
246 248 248 248 240 235 237 240 236 234 238 233 223 220 217 215 207 198 193 186 178 174 172 173 173 174 170 172 174 174 176 175 173 174 174 174 173 171 166 163 166 160 160 166 163 150 149 147 133
247 250 254 260 253 243 245 247 242 234 230 233 233 224 217 212 208 200 192 186 180 177 174 174 176 177 178 179 179 176 169 172 173 173 180 181 178 175 173 168 169 164 161 168 168 152 150 160 157
244 246 249 252 257 254 257 254 242 235 233 228 232 232 224 215 208 199 193 189 181 179 177 178 178 179 181 175 168 163 161 165 176 184 187 187 183 180 175 174 170 171 168 174 173 164 158 164 187
245 243 250 254 254 249 233 251 235 227 228 225 224 224 224 222 213 201 193 190 185 181 178 178 178 179 180 175 176 175 179 183 187 182 181 182 186 183 179 178 177 176 175 175 177 170 164 158 175
247 246 245 248 252 256 239 248 244 219 225 222 218 219 218 217 216 208 196 189 186 180 177 178 177 180 180 180 182 182 185 186 174 172 178 184 189 188 184 183 182 181 180 180 179 172 171 168 168
252 254 254 246 242 246 233 232 248 219 223 220 215 214 213 211 214 213 199 186 182 179 176 176 178 181 180 182 184 186 186 182 176 178 183 185 186 188 189 187 187 185 182 182 181 177 175 177 176
227 214 216 215 218 235 219 225 239 228 226 223 217 211 209 205 206 210 201 187 182 178 177 177 179 183 183 184 188 190 190 187 185 182 183 182 183 188 192 189 189 188 184 181 178 177 179 179 180
219 212 217 218 217 232 215 225 237 230 238 231 223 216 207 203 202 204 200 188 180 178 178 179 182 185 185 186 190 191 190 190 190 185 182 185 188 188 187 188 189 189 185 182 178 178 180 182 185
219 220 232 266 282 264 233 234 243 222 228 235 233 222 210 204 200 198 194 185 178 177 179 181 183 186 187 187 188 190 190 190 189 184 181 183 182 180 183 187 189 189 186 183 179 182 182 180 186
222 231 210 210 231 239 238 235 234 202 211 220 223 223 214 202 198 194 191 188 181 178 178 178 183 187 185 185 188 190 190 189 186 181 182 180 179 177 180 184 187 187 185 182 180 178 177 178 184
217 214 225 221 235 233 241 239 225 215 200 210 218 218 212 206 196 192 190 185 176 170 173 175 181 184 184 185 184 184 186 184 182 182 181 177 176 176 179 182 184 185 184 181 180 181 177 182 185
239 226 217 235 245 240 250 264 279 263 217 209 218 215 208 204 193 185 179 176 171 171 174 176 178 182 184 182 179 180 179 178 179 180 178 174 174 175 177 178 181 183 182 181 182 183 182 184 187